Terug naar catalogus

CZ-6A DEB

ActiefPO
NORAD 55204·DEBRIS·🇨🇳 China

Gelanceerd Nov 11, 2022 vanaf Taiyuan Satellite Launch Center

Loading…

Volgende Passages (komende 24 uur)

TLE

VersSource: Space-Track

Epoch: Sep 14, 2026, 15:41 UTC

1 55204U 22151VV  26257.65372868  .00019755  00000-0  19258-2 0  9998
2 55204  98.6128 341.3246 0050992 318.6999  41.0364 14.91526856199177

Volg CZ-6A DEB in realtime met AllMySat

Download on the App Store